DW2047 Weather Reports


time (UTC)temp
F
wind
direction
speed
knots
gust
knots
rain 1hr
in
rain 24hr
in
rain mn
in
humidity
%
barometer
mb
20260507193059 65 24 0.9 0.0 0.00 0.00 0.00 72 1019.0
20260507192523 65 40 0.9 0.0 0.00 0.00 0.00 71 1018.9
20260507192102 65 81 0.9 0.0 0.00 0.00 0.00 72 1018.5
20260507191506 64 21 1.7 0.0 0.00 0.00 0.00 73 1018.5
20260507191040 64 70 1.7 0.0 0.00 0.00 0.00 72 1018.5
20260507190511 64 333 1.7 0.0 0.00 0.00 0.00 73 1018.1
20260507190012 64 76 1.7 0.0 0.00 0.00 0.00 73 1018.4
20260507185547 63 64 1.7 0.0 0.00 0.00 0.00 73 1018.5
20260507185017 63 24 1.7 0.0 0.00 0.00 0.00 73 1018.8
20260507184502 63 118 1.7 0.0 0.00 0.00 0.00 73 1018.0
20260507184041 63 351 1.7 0.0 0.00 0.00 0.00 74 1018.2
20260507183510 64 360 1.7 0.0 0.00 0.00 0.00 73 1018.3
20260507183107 64 355 1.7 0.0 0.00 0.00 0.00 73 1018.3
20260507182542 64 39 1.7 0.0 0.00 0.00 0.00 74 1018.8
20260507182023 64 12 1.7 0.0 0.00 0.00 0.00 74 1018.2
20260507181527 63 67 1.7 0.0 0.00 0.00 0.00 74 1018.6
20260507181105 63 98 1.7 0.0 0.00 0.00 0.00 74 1018.9
20260507180541 63 313 1.7 0.0 0.00 0.00 0.00 74 1018.9
20260507180045 63 334 1.7 0.0 0.00 0.00 0.00 73 1019.3
20260507175515 63 17 1.7 0.0 0.00 0.00 0.00 75 1019.3
20260507175051 63 5 1.7 0.0 0.00 0.00 0.00 75 1019.6
20260507174607 63 76 1.7 0.0 0.00 0.00 0.00 76 1019.2
20260507174030 63 86 1.7 0.0 0.00 0.00 0.00 76 1018.4
20260507173503 62 67 2.6 0.0 0.00 0.00 0.00 77 1018.1
20260507173005 62 5 1.7 0.0 0.00 0.00 0.00 78 1018.7
20260507172547 62 350 1.7 0.0 0.00 0.00 0.00 80 1018.9
20260507172017 61 336 1.7 0.0 0.00 0.00 0.00 81 1019.2
20260507171521 61 336 1.7 0.0 0.00 0.00 0.00 80 1019.5
20260507171100 61 69 1.7 0.0 0.00 0.00 0.00 83 1019.1
20260507170530 60 69 1.7 0.0 0.00 0.00 0.00 83 1018.8
20260507170031 60 65 1.7 0.0 0.00 0.00 0.00 82 1018.6
20260507165503 60 51 1.7 0.0 0.00 0.00 0.00 82 1018.3
20260507165044 60 80 1.7 0.0 0.00 0.00 0.00 81 1019.1
20260507164601 60 347 0.9 0.0 0.00 0.00 0.00 81 1018.8
20260507164020 60 323 1.7 0.0 0.00 0.00 0.00 81 1019.1
20260507163559 60 328 1.7 0.0 0.00 0.00 0.00 81 1019.7
20260507163100 60 327 0.9 0.0 0.00 0.00 0.00 81 1020.6
20260507162533 60 327 0.0 0.0 0.00 0.00 0.00 81 1020.8
20260507162007 60 327 0.0 0.0 0.00 0.00 0.00 82 1020.8
20260507161508 60 327 0.9 0.0 0.00 0.00 0.00 82 1020.4
20260507161043 60 327 0.9 0.0 0.00 0.00 0.00 82 1020.3
20260507160520 60 342 0.9 0.0 0.00 0.00 0.00 82 1020.0
20260507160032 60 10 0.9 0.0 0.00 0.00 0.00 83 1019.8
20260507155555 60 10 0.9 0.0 0.00 0.00 0.00 83 1019.9
20260507155031 60 67 0.9 0.0 0.00 0.00 0.00 82 1019.9
20260507154538 59 73 1.7 0.0 0.00 0.00 0.00 82 1020.4
20260507154010 59 73 1.7 0.0 0.00 0.00 0.00 82 1020.6
20260507153544 59 5 1.7 0.0 0.00 0.00 0.00 83 1019.6
20260507153030 59 326 1.7 0.0 0.00 0.00 0.00 83 1020.0
20260507152507 59 325 0.9 0.0 0.00 0.00 0.00 82 1020.5
20260507152042 59 325 1.7 0.0 0.00 0.00 0.00 83 1020.3
20260507151546 59 325 1.7 0.0 0.00 0.00 0.00 83 1019.6
20260507151018 59 321 0.9 0.0 0.00 0.00 0.00 84 1019.9
20260507150554 59 11 0.9 0.0 0.00 0.00 0.00 84 1020.2
20260507150106 59 46 1.7 0.0 0.00 0.00 0.00 84 1020.2
20260507145528 58 338 2.6 0.0 0.00 0.00 0.00 84 1020.1
20260507145003 58 350 1.7 0.0 0.00 0.00 0.00 85 1019.4
20260507144503 58 55 0.9 0.0 0.00 0.00 0.00 86 1019.1
20260507144042 58 333 1.7 0.0 0.00 0.00 0.00 86 1019.6
20260507143520 58 348 1.7 0.0 0.00 0.00 0.00 86 1019.7
20260507143020 58 360 2.6 0.0 0.00 0.00 0.00 87 1019.3
20260507142600 58 355 1.7 0.0 0.00 0.00 0.00 87 1019.6
20260507142032 58 344 0.9 0.0 0.00 0.00 0.00 88 1019.8
20260507141548 58 337 0.9 0.0 0.00 0.00 0.00 89 1019.6
20260507141015 58 337 1.7 0.0 0.00 0.00 0.00 89 1019.7
20260507140551 58 337 1.7 0.0 0.00 0.00 0.00 89 1019.7
20260507140043 57 355 1.7 0.0 0.00 0.00 0.00 90 1019.6
20260507135515 57 56 1.7 0.0 0.00 0.00 0.00 90 1019.2
20260507135057 57 344 1.7 0.0 0.00 0.00 0.00 90 1019.4
20260507134600 57 344 1.7 0.0 0.00 0.00 0.00 91 1019.1
20260507134033 57 344 0.9 0.0 0.00 0.00 0.00 91 1019.3
20260507133510 57 342 1.7 0.0 0.00 0.00 0.00 91 1018.8
20260507133010 57 346 1.7 0.0 0.00 0.00 0.00 91 1019.3
20260507132547 57 348 1.7 0.0 0.00 0.00 0.00 91 1019.2
20260507132023 57 10 1.7 0.0 0.00 0.00 0.00 91 1019.2
20260507131534 57 346 1.7 0.0 0.00 0.00 0.00 92 1019.3
20260507131106 57 351 1.7 0.0 0.00 0.00 0.00 92 1019.4
20260507130540 56 315 1.7 0.0 0.00 0.00 0.00 92 1019.4
20260507130043 56 339 1.7 0.0 0.00 0.00 0.00 92 1019.4
20260507125518 56 321 1.7 0.0 0.00 0.00 0.00 92 1019.2
20260507125050 56 321 1.7 0.0 0.00 0.00 0.00 92 1019.1
20260507124540 56 322 1.7 0.0 0.00 0.00 0.00 92 1019.2
20260507124016 56 325 2.6 0.0 0.00 0.00 0.00 91 1019.2
20260507123552 56 314 2.6 0.0 0.00 0.00 0.00 92 1019.2
20260507123106 56 306 2.6 0.0 0.00 0.00 0.00 92 1019.0
20260507122529 56 326 3.5 0.0 0.00 0.00 0.00 91 1018.8
20260507122007 56 348 2.6 0.0 0.00 0.00 0.00 91 1018.9
20260507121508 57 350 2.6 0.0 0.00 0.00 0.00 91 1018.8
20260507121049 57 351 1.7 0.0 0.00 0.00 0.00 91 1018.6
20260507120519 57 355 1.7 0.0 0.00 0.00 0.00 91 1018.6
20260507120021 57 350 1.7 0.0 0.00 0.00 0.00 91 1018.2
20260507115557 57 349 1.7 0.0 0.00 0.00 0.00 91 1018.2
20260507115028 57 360 2.6 0.0 0.00 0.00 0.00 91 1018.2
20260507114535 57 319 2.6 0.0 0.00 0.00 0.00 91 1018.4
20260507114005 57 342 2.6 0.0 0.00 0.00 0.00 91 1018.5
20260507113541 57 334 2.6 0.0 0.00 0.00 0.00 91 1018.5
20260507113045 57 309 2.6 0.0 0.00 0.00 0.00 91 1018.4
20260507112521 57 329 2.6 0.0 0.00 0.00 0.00 91 1018.3
20260507112054 57 331 1.7 0.0 0.00 0.00 0.00 90 1018.3
20260507111600 57 331 1.7 0.0 0.00 0.00 0.00 91 1018.3
20260507111028 57 338 2.6 0.0 0.00 0.00 0.00 91 1018.2
20260507110502 57 360 1.7 0.0 0.00 0.00 0.00 90 1018.2
20260507110114 57 355 1.7 0.0 0.00 0.00 0.00 90 1018.1
20260507105533 57 340 1.7 0.0 0.00 0.00 0.00 90 1018.1
20260507105003 57 339 1.7 0.0 0.00 0.00 0.00 90 1018.2
20260507104508 57 334 1.7 0.0 0.00 0.00 0.00 90 1018.4
20260507104046 58 346 1.7 0.0 0.00 0.00 0.00 90 1018.1
20260507103522 58 323 1.7 0.0 0.00 0.00 0.00 90 1017.9
20260507103001 58 344 1.7 0.0 0.00 0.00 0.00 90 1017.8
20260507102538 58 341 0.9 0.0 0.00 0.00 0.00 90 1018.0
20260507102008 58 342 0.9 0.0 0.00 0.00 0.00 90 1018.4
20260507101518 58 315 1.7 0.0 0.00 0.00 0.00 90 1017.9
20260507101051 58 5 0.9 0.0 0.00 0.00 0.00 90 1017.9
20260507100523 58 360 0.9 0.0 0.00 0.00 0.00 90 1017.7
20260507100034 58 355 0.9 0.0 0.00 0.00 0.00 90 1017.6
20260507095506 58 355 0.9 0.0 0.00 0.00 0.00 90 1017.8
20260507095044 58 355 0.9 0.0 0.00 0.00 0.00 90 1018.0
20260507094533 58 355 0.9 0.0 0.00 0.00 0.00 90 1017.9
20260507094008 58 355 0.9 0.0 0.00 0.00 0.00 89 1017.9
20260507093543 58 343 0.9 0.0 0.00 0.00 0.00 89 1017.4
20260507093057 58 355 0.9 0.0 0.00 0.00 0.00 90 1017.3
20260507092526 58 347 0.9 0.0 0.00 0.00 0.00 89 1017.6
20260507092102 58 347 0.9 0.0 0.00 0.00 0.00 90 1017.6
20260507091642 58 347 0.9 0.0 0.00 0.00 0.00 89 1017.5
20260507091034 58 347 0.9 0.0 0.00 0.00 0.00 90 1016.9
20260507090511 58 347 0.9 0.0 0.00 0.00 0.00 89 1017.0
20260507090017 58 283 0.9 0.0 0.00 0.00 0.00 90 1017.1
20260507085555 58 279 0.9 0.0 0.00 0.00 0.00 90 1017.1
20260507085027 58 279 0.0 0.0 0.00 0.00 0.00 90 1016.7
20260507084538 58 279 0.0 0.0 0.00 0.00 0.00 90 1016.9
20260507084004 58 279 0.0 0.0 0.00 0.00 0.00 89 1017.0
20260507083540 58 279 0.0 0.0 0.00 0.00 0.00 89 1016.5
20260507083045 58 279 0.0 0.0 0.00 0.00 0.00 89 1016.5
20260507082519 58 279 0.0 0.0 0.00 0.00 0.00 89 1016.7
20260507082056 58 279 0.0 0.0 0.00 0.00 0.00 89 1016.5
20260507081609 58 9 0.0 0.0 0.00 0.00 0.00 89 1016.6
20260507081033 58 360 0.9 0.0 0.00 0.00 0.00 89 1016.6
20260507080514 58 360 0.9 0.0 0.00 0.00 0.00 89 1016.1
20260507080015 58 72 0.9 0.0 0.00 0.00 0.00 89 1015.9
20260507075550 58 9 0.9 0.0 0.00 0.00 0.00 89 1016.1
20260507075020 58 10 0.0 0.0 0.00 0.00 0.00 89 1016.3
20260507074538 58 360 0.9 0.0 0.00 0.00 0.00 89 1016.1
20260507074101 58 360 0.9 0.0 0.00 0.00 0.00 88 1015.7
20260507073537 58 323 0.9 0.0 0.00 0.00 0.00 88 1015.7
20260507073041 58 350 0.9 0.0 0.00 0.00 0.00 88 1016.1
20260507072513 58 355 1.7 0.0 0.00 0.00 0.00 88 1016.0
20260507072047 58 77 1.7 0.0 0.00 0.00 0.00 88 1016.2
20260507071556 58 69 1.7 0.0 0.00 0.00 0.00 88 1016.1
20260507071025 58 55 0.9 0.0 0.00 0.00 0.00 88 1016.0
20260507070602 59 70 0.9 0.0 0.00 0.00 0.00 87 1016.0
20260507070059 59 74 0.9 0.0 0.00 0.00 0.00 87 1016.0
20260507065524 59 144 0.0 0.0 0.00 0.00 0.00 87 1015.6
20260507065101 59 144 0.0 0.0 0.00 0.00 0.00 87 1015.6
20260507064602 59 49 0.0 0.0 0.00 0.00 0.00 87 1015.9
20260507064038 59 78 0.9 0.0 0.00 0.00 0.00 87 1015.6
20260507063508 59 300 0.9 0.0 0.00 0.00 0.00 86 1015.7
20260507063016 59 350 0.0 0.0 0.00 0.00 0.00 86 1015.7
20260507062555 59 350 0.0 0.0 0.00 0.00 0.00 86 1015.9
20260507062031 59 76 0.9 0.0 0.00 0.00 0.00 86 1016.1
20260507061533 59 74 0.0 0.0 0.00 0.00 0.00 86 1016.0
20260507061005 59 360 0.0 0.0 0.00 0.00 0.00 86 1016.1
20260507060549 59 360 0.0 0.0 0.00 0.00 0.00 86 1016.2
20260507060100 59 75 0.9 0.0 0.00 0.00 0.00 85 1016.1
20260507055519 59 75 0.9 0.0 0.00 0.00 0.00 85 1015.8
20260507055055 60 44 0.9 0.0 0.00 0.00 0.00 85 1015.7
20260507054600 60 360 0.9 0.0 0.00 0.00 0.00 85 1015.9
20260507054030 60 348 0.9 0.0 0.00 0.00 0.00 85 1015.6
20260507053502 60 56 0.9 0.0 0.00 0.00 0.00 85 1015.6
20260507053005 60 73 0.9 0.0 0.00 0.00 0.00 86 1015.7
20260507052545 60 94 0.9 0.0 0.00 0.00 0.00 86 1015.8
20260507052015 60 84 0.9 0.0 0.00 0.00 0.00 86 1015.8
20260507051526 60 85 0.9 0.0 0.00 0.00 0.00 86 1016.0
20260507051055 60 360 0.9 0.0 0.00 0.00 0.00 86 1015.9
20260507050531 60 348 0.9 0.0 0.00 0.00 0.00 86 1015.6
20260507050041 60 79 0.9 0.0 0.00 0.00 0.00 85 1015.8
20260507045506 60 70 0.9 0.0 0.00 0.00 0.00 85 1015.9
20260507045045 60 72 0.9 0.0 0.00 0.00 0.00 85 1015.7
20260507044535 60 9 0.9 0.0 0.00 0.00 0.00 85 1015.7
20260507044007 61 78 0.9 0.0 0.00 0.00 0.00 85 1015.6
20260507043547 61 343 0.9 0.0 0.00 0.00 0.00 85 1015.8
20260507043055 61 342 0.9 0.0 0.00 0.00 0.00 85 1015.9
20260507042521 61 355 1.7 0.0 0.00 0.00 0.00 85 1015.7
20260507042100 61 333 0.9 0.0 0.00 0.00 0.00 85 1015.8
20260507041604 61 317 0.9 0.0 0.00 0.00 0.00 85 1016.0
20260507041031 61 325 0.9 0.0 0.00 0.00 0.00 85 1016.2
20260507040504 61 325 0.9 0.0 0.00 0.00 0.00 85 1016.3
20260507040011 61 347 0.9 0.0 0.00 0.00 0.00 85 1016.1
20260507035546 61 350 0.9 0.0 0.00 0.00 0.00 85 1015.7
20260507035020 61 350 1.7 0.0 0.00 0.00 0.00 85 1015.6
20260507034539 61 31 0.9 0.0 0.00 0.00 0.00 85 1015.6
20260507034100 61 292 0.9 0.0 0.00 0.00 0.00 85 1015.8
20260507033533 61 292 0.9 0.0 0.00 0.00 0.00 86 1015.5
20260507033039 61 314 0.9 0.0 0.00 0.00 0.00 86 1015.7
20260507032505 61 309 1.7 0.0 0.00 0.00 0.00 87 1015.5
20260507032047 61 360 1.7 0.0 0.00 0.00 0.00 87 1015.2
20260507031536 61 348 0.9 0.0 0.00 0.00 0.00 86 1015.4
20260507031010 61 348 0.9 0.0 0.00 0.00 0.00 87 1015.2
20260507030544 61 348 0.9 0.0 0.00 0.00 0.00 87 1015.1
20260507030035 61 348 0.9 0.0 0.00 0.00 0.00 87 1015.5
20260507025507 61 348 0.9 0.0 0.00 0.00 0.00 88 1015.5
20260507025043 61 348 0.9 0.0 0.00 0.00 0.00 87 1015.6
20260507024549 61 348 1.7 0.0 0.00 0.00 0.00 87 1015.6
20260507024006 61 349 1.7 0.0 0.00 0.00 0.00 87 1015.1
20260507023545 61 348 1.7 0.0 0.00 0.00 0.00 87 1015.1
20260507023033 61 348 1.7 0.0 0.00 0.00 0.00 86 1015.0
20260507022505 61 348 1.7 0.0 0.00 0.00 0.00 86 1014.9
20260507022044 61 338 1.7 0.0 0.00 0.00 0.00 86 1015.1
20260507021544 61 355 0.9 0.0 0.00 0.00 0.00 86 1014.9
20260507021011 61 355 0.9 0.0 0.00 0.00 0.00 86 1015.0
20260507020551 61 355 0.9 0.0 0.00 0.00 0.00 86 1014.9
20260507020046 61 355 1.7 0.0 0.00 0.00 0.00 86 1014.7
20260507015516 61 351 0.9 0.0 0.00 0.00 0.00 86 1014.6
20260507015055 61 350 0.9 0.0 0.00 0.00 0.00 86 1014.4
20260507014601 61 350 0.9 0.0 0.00 0.00 0.00 86 1014.4
20260507014030 61 348 0.9 0.0 0.00 0.00 0.00 86 1014.3
20260507013504 61 348 0.9 0.0 0.00 0.00 0.00 86 1014.2
20260507013005 61 348 0.9 0.0 0.00 0.00 0.00 86 1014.0
20260507012547 61 348 1.7 0.0 0.00 0.00 0.00 86 1013.7
20260507012020 61 348 1.7 0.0 0.00 0.00 0.00 86 1014.0
20260507011537 61 348 0.9 0.0 0.00 0.00 0.00 86 1014.0
20260507011104 61 349 0.9 0.0 0.00 0.00 0.00 86 1013.9
20260507010536 61 349 0.9 0.0 0.00 0.00 0.00 85 1013.5
20260507010050 61 137 0.9 0.0 0.00 0.00 0.00 86 1013.6
20260507005515 61 336 0.9 0.0 0.00 0.00 0.00 86 1013.3
20260507005052 61 325 0.9 0.0 0.00 0.00 0.00 86 1013.1
20260507004555 61 325 1.7 0.0 0.00 0.00 0.00 85 1013.2
20260507004028 61 344 0.9 0.0 0.00 0.00 0.00 85 1013.6
20260507003603 61 344 0.9 0.0 0.00 0.00 0.00 85 1013.2
20260507003048 61 344 0.9 0.0 0.00 0.00 0.00 85 1013.1
20260507002524 61 344 0.9 0.0 0.00 0.00 0.00 85 1013.1
20260507002103 61 344 0.9 0.0 0.00 0.00 0.00 85 1013.0
20260507001503 61 344 0.9 0.0 0.00 0.00 0.00 85 1013.2
20260507001038 61 344 0.9 0.0 0.00 0.00 0.00 85 1012.9
20260507000514 61 344 1.7 0.0 0.00 0.00 0.00 84 1013.0
20260507000015 61 344 1.7 0.0 0.00 0.00 0.00 84 1013.0
20260506235554 61 323 1.7 0.0 0.00 0.00 0.00 84 1013.0
20260506235030 61 355 2.6 0.0 0.00 0.00 0.00 84 1012.9
20260506234534 61 313 2.6 0.0 0.00 0.00 0.00 84 1012.9
20260506234011 61 339 1.7 0.0 0.00 0.00 0.00 84 1012.7
20260506233550 61 336 1.7 0.0 0.00 0.00 0.00 84 1012.8
20260506233050 61 336 2.6 0.0 0.00 0.00 0.00 84 1013.2
20260506232520 61 335 1.7 0.0 0.00 0.00 0.00 84 1012.8
20260506232058 61 319 1.7 0.0 0.00 0.00 0.00 84 1013.1
20260506231545 61 311 1.7 0.0 0.00 0.00 0.00 84 1013.2
20260506231019 61 350 1.7 0.0 0.00 0.00 0.00 84 1013.0
20260506230554 61 336 1.7 0.0 0.00 0.00 0.00 84 1012.5
20260506230103 62 336 1.7 0.0 0.00 0.00 0.00 84 1013.1
20260506225533 62 355 0.9 0.0 0.00 0.00 0.00 85 1012.6
20260506225012 61 355 0.9 0.0 0.00 0.00 0.00 85 1012.8
20260506224514 61 355 1.7 0.0 0.00 0.00 0.00 85 1012.8
20260506224049 61 351 2.6 0.0 0.00 0.00 0.00 85 1012.6
20260506223525 61 355 2.6 0.0 0.00 0.00 0.00 86 1012.7
20260506223026 60 342 2.6 0.0 0.00 0.00 0.00 86 1012.5
20260506222605 60 342 2.6 0.0 0.00 0.00 0.00 86 1012.4
20260506222037 60 329 2.6 0.0 0.00 0.00 0.00 86 1012.6
20260506221545 60 340 2.6 0.0 0.00 0.00 0.00 86 1012.6
20260506221012 60 342 2.6 0.0 0.00 0.00 0.00 86 1012.7
20260506220553 60 316 2.6 0.0 0.00 0.00 0.00 86 1012.8
20260506220048 59 344 2.6 0.0 0.00 0.00 0.00 86 1012.9
20260506215516 59 346 2.6 0.0 0.00 0.00 0.00 86 1012.6
20260506215058 60 340 2.6 0.0 0.00 0.00 0.00 86 1012.7
20260506214609 59 336 2.6 0.0 0.00 0.00 0.00 87 1012.6
20260506214031 59 336 2.6 0.0 0.00 0.00 0.00 86 1012.7
20260506213500 59 340 2.6 0.0 0.00 0.00 0.00 87 1012.6
20260506213057 59 355 2.6 0.0 0.00 0.00 0.00 87 1012.8
20260506212532 59 360 2.6 0.0 0.00 0.00 0.00 86 1013.0
20260506212001 59 323 2.6 0.0 0.00 0.00 0.00 87 1013.0
20260506211559 59 326 2.6 0.0 0.00 0.00 0.00 86 1013.0
20260506211030 59 339 3.5 0.0 0.00 0.00 0.00 87 1013.0
20260506210607 59 296 3.5 0.0 0.00 0.00 0.00 86 1012.9
20260506210055 60 315 2.6 0.0 0.00 0.00 0.00 86 1013.0
20260506205524 59 278 3.5 0.0 0.00 0.00 0.00 86 1013.0
20260506205103 59 300 3.5 0.0 0.00 0.00 0.00 86 1013.0
20260506204554 60 327 3.5 0.0 0.00 0.00 0.00 85 1013.0
20260506204025 60 333 3.5 0.0 0.00 0.00 0.00 86 1013.0
20260506203603 60 254 3.5 0.0 0.00 0.00 0.00 86 1013.0
20260506203010 60 325 3.5 0.0 0.00 0.00 0.00 85 1013.1
20260506202546 60 336 3.5 0.0 0.00 0.00 0.00 85 1013.1
20260506202016 60 334 2.6 0.0 0.00 0.00 0.00 85 1013.0
20260506201526 60 322 2.6 0.0 0.00 0.00 0.00 87 1012.8
20260506201100 60 342 3.5 0.0 0.00 0.00 0.00 85 1012.8
20260506200532 60 340 3.5 0.0 0.00 0.00 0.00 86 1012.8
20260506200037 60 336 3.5 0.0 0.00 0.00 0.00 85 1013.0
20260506195514 60 28 3.5 0.0 0.00 0.00 0.00 85 1012.9
20260506195053 61 338 4.3 0.0 0.00 0.00 0.00 85 1013.0
20260506194559 61 306 3.5 0.0 0.00 0.00 0.00 84 1012.9
20260506194035 62 315 3.5 0.0 0.00 0.00 0.00 84 1012.9
20260506193507 62 307 3.5 0.0 0.00 0.00 0.00 84 1012.8